Date String (YYYY-MM-DD hh:mm:ss) UTC,Instrument flags,absolute air pressure of the measurement (hPa),sample flow rate (lpm),inlet stack bypass flow (lpm),air temperature of the measurement (°C),ambient temperature measured by the external sensor (°C),aerosol sample conditioner tube jacket temperature (°C),OPC LED temperature (°C),internal box temperature (°C),relative humidity of the measurement (%),span deviation,mass concentration of particles derived from Lorenz-Mie calculation of OPC scattering (μg/m³),mass concentration of particles derived from Lorenz-Mie calculation of OPC scattering (μg/m³),mass concentration of particles derived from Lorenz-Mie calculation of OPC scattering (μg/m³)
DateTimeUTC,F1_M11,P_M11,Q1_M11,Q2_M11,T1_M11,T2_M11,T3_M11,T4_M11,T5_M11,U1_M11,ZSPAN_M11,X0_M11,X2_M11,X1_M11
2024-04-12 03:00:00,SystemResetWarning,0830.3,5.01,000.00,026.4,025.7,000.0,034.8,028.2,012.7,0000.0,0017.48,0005.55,0003.50
2024-04-12 03:01:00,SystemResetWarning,0830.3,4.99,000.00,026.4,025.7,000.0,034.8,028.2,012.7,0000.0,0017.01,0005.56,0003.50
2024-04-12 03:02:00,SystemResetWarning,0830.3,4.99,000.00,026.4,025.7,000.0,034.8,028.2,012.8,0000.0,0017.91,0005.53,0003.51
2024-04-12 03:03:00,SystemResetWarning,0830.4,5.00,000.00,026.4,025.7,000.0,034.8,028.2,012.8,0000.0,0017.63,0005.52,0003.51
2024-04-12 03:04:00,SystemResetWarning,0830.4,5.01,000.00,026.4,025.7,000.0,034.8,028.2,012.8,0000.0,0018.44,0005.55,0003.52
2024-04-12 03:05:00,SystemResetWarning,0830.4,5.01,000.00,026.4,025.7,000.0,034.8,028.2,012.8,0000.0,0018.51,0005.60,0003.51
2024-04-12 03:06:00,SystemResetWarning,0830.4,5.00,000.00,026.4,025.7,000.0,034.8,028.2,012.7,0000.0,0019.05,0005.59,0003.51
2024-04-12 03:07:00,SystemResetWarning,0830.4,4.99,000.00,026.4,025.7,000.0,034.8,028.3,012.7,0000.0,0019.65,0005.70,0003.52
2024-04-12 03:08:00,SystemResetWarning,0830.5,5.00,000.00,026.4,025.7,000.0,034.8,028.2,012.7,0000.0,0019.78,0005.76,0003.52
2024-04-12 03:09:00,SystemResetWarning,0830.4,5.00,000.00,026.4,025.7,000.0,034.8,028.3,012.7,0000.0,0019.76,0005.78,0003.51
2024-04-12 03:10:00,SystemResetWarning,0830.4,5.00,000.00,026.4,025.7,000.0,034.8,028.3,012.7,0000.0,0019.54,0005.84,0003.52
2024-04-12 03:11:00,SystemResetWarning,0830.4,5.02,000.00,026.4,025.7,000.0,034.8,028.3,012.7,0000.0,0019.72,0005.90,0003.53
2024-04-12 03:12:00,SystemResetWarning,0830.5,5.01,000.00,026.4,025.7,000.0,034.8,028.3,012.7,0000.0,0020.43,0005.86,0003.53
2024-04-12 03:13:00,SystemResetWarning,0830.5,5.01,000.00,026.4,025.7,000.0,034.8,028.3,012.7,0000.0,0020.10,0005.89,0003.53
2024-04-12 03:14:00,SystemResetWarning,0830.5,5.00,000.00,026.4,025.7,000.0,034.8,028.3,012.7,0000.0,0019.92,0005.95,0003.52
2024-04-12 03:15:00,SystemResetWarning,0830.4,5.00,000.00,026.4,025.7,000.0,034.9,028.3,012.6,0000.0,0019.35,0005.90,0003.50
2024-04-12 03:16:00,SystemResetWarning,0830.4,4.99,000.00,026.4,025.7,000.0,034.9,028.3,012.6,0000.0,0019.18,0005.86,0003.51
2024-04-12 03:17:00,SystemResetWarning,0830.4,5.00,000.00,026.4,025.7,000.0,034.9,028.3,012.6,0000.0,0020.62,0005.88,0003.52
2024-04-12 03:18:00,SystemResetWarning,0830.5,5.01,000.00,026.4,025.7,000.0,034.9,028.3,012.6,0000.0,0022.33,0005.85,0003.51
2024-04-12 03:19:00,SystemResetWarning,0830.5,5.01,000.00,026.4,025.7,000.0,034.9,028.3,012.5,0000.0,0023.31,0005.85,0003.51
2024-04-12 03:20:00,SystemResetWarning,0830.6,5.00,000.00,026.4,025.7,000.0,034.9,028.3,012.5,0000.0,0024.40,0005.87,0003.53
2024-04-12 03:21:00,SystemResetWarning,0830.6,5.01,000.00,026.4,025.7,000.0,034.9,028.2,012.6,0000.0,0024.92,0005.91,0003.54
2024-04-12 03:22:00,SystemResetWarning,0830.6,5.00,000.00,026.4,025.7,000.0,034.9,028.2,012.6,0000.0,0024.67,0005.91,0003.53
2024-04-12 03:23:00,SystemResetWarning,0830.6,4.99,000.00,026.4,025.7,000.0,034.9,028.2,012.5,0000.0,0024.42,0005.96,0003.55
2024-04-12 03:24:00,SystemResetWarning,0830.6,4.99,000.00,026.4,025.6,000.0,034.9,028.2,012.5,0000.0,0023.68,0005.93,0003.56
2024-04-12 03:25:00,SystemResetWarning,0830.5,5.00,000.00,026.4,025.6,000.0,034.9,028.2,012.5,0000.0,0023.26,0005.88,0003.56
2024-04-12 03:26:00,SystemResetWarning,0830.5,5.01,000.00,026.4,025.6,000.0,034.9,028.2,012.4,0000.0,0022.87,0005.95,0003.58
2024-04-12 03:27:00,SystemResetWarning,0830.6,5.01,000.00,026.4,025.6,000.0,034.9,028.2,012.4,0000.0,0023.03,0005.95,0003.56
2024-04-12 03:28:00,SystemResetWarning,0830.6,5.00,000.00,026.4,025.6,000.0,034.9,028.3,012.4,0000.0,0023.28,0005.93,0003.56
2024-04-12 03:29:00,SystemResetWarning,0830.6,4.99,000.00,026.4,025.6,000.0,034.9,028.2,012.3,0000.0,0021.40,0005.93,0003.56
2024-04-12 03:30:00,SystemResetWarning,0830.6,5.01,000.00,026.4,025.6,000.0,034.9,028.3,012.3,0000.0,0020.15,0005.90,0003.55
2024-04-12 03:31:00,SystemResetWarning,0830.6,5.01,000.00,026.4,025.6,000.0,034.9,028.2,012.2,0000.0,0020.28,0005.87,0003.54
2024-04-12 03:32:00,SystemResetWarning,0830.6,5.01,000.00,026.4,025.6,000.0,034.9,028.2,012.3,0000.0,0020.44,0005.79,0003.52
2024-04-12 03:33:00,SystemResetWarning,0830.6,4.99,000.00,026.4,025.6,000.0,034.9,028.2,012.3,0000.0,0020.48,0005.79,0003.54
2024-04-12 03:34:00,SystemResetWarning,0830.6,4.99,000.00,026.4,025.6,000.0,034.9,028.2,012.4,0000.0,0020.43,0005.74,0003.53
2024-04-12 03:35:00,SystemResetWarning,0830.7,5.01,000.00,026.4,025.6,000.0,034.9,028.2,012.5,0000.0,0020.28,0005.78,0003.53
2024-04-12 03:36:00,SystemResetWarning,0830.7,5.01,000.00,026.4,025.6,000.0,034.9,028.2,012.5,0000.0,0020.81,0005.79,0003.53
2024-04-12 03:37:00,SystemResetWarning,0830.7,5.00,000.00,026.4,025.6,000.0,034.9,028.2,012.5,0000.0,0020.81,0005.81,0003.52
2024-04-12 03:38:00,SystemResetWarning,0830.6,5.00,000.00,026.4,025.6,000.0,034.9,028.2,012.4,0000.0,0020.73,0005.79,0003.51
2024-04-12 03:39:00,SystemResetWarning,0830.7,4.99,000.00,026.4,025.6,000.0,034.9,028.2,012.3,0000.0,0019.14,0005.80,0003.52
2024-04-12 03:40:00,SystemResetWarning,0830.6,5.00,000.00,026.4,025.6,000.0,034.9,028.2,012.4,0000.0,0019.06,0005.84,0003.53
2024-04-12 03:41:00,SystemResetWarning,0830.6,5.01,000.00,026.4,025.6,000.0,034.9,028.2,012.3,0000.0,0019.61,0005.89,0003.53
2024-04-12 03:42:00,SystemResetWarning,0830.6,4.99,000.00,026.4,025.5,000.0,034.9,028.2,012.3,0000.0,0019.07,0005.90,0003.54
2024-04-12 03:43:00,SystemResetWarning,0830.6,5.00,000.00,026.3,025.5,000.0,034.9,028.2,012.4,0000.0,0017.59,0005.90,0003.53
2024-04-12 03:44:00,SystemResetWarning,0830.6,5.00,000.00,026.3,025.5,000.0,034.9,028.2,012.3,0000.0,0018.37,0005.84,0003.51
2024-04-12 03:45:00,SystemResetWarning,0830.6,5.00,000.00,026.3,025.5,000.0,034.9,028.2,012.3,0000.0,0018.40,0005.83,0003.52
2024-04-12 03:46:00,SystemResetWarning,0830.6,5.00,000.00,026.3,025.5,000.0,034.9,028.2,012.4,0000.0,0019.32,0005.81,0003.51
2024-04-12 03:47:00,SystemResetWarning,0830.6,5.00,000.00,026.3,025.5,000.0,034.8,028.2,012.4,0000.0,0018.59,0005.78,0003.51
2024-04-12 03:48:00,SystemResetWarning,0830.6,5.00,000.00,026.3,025.5,000.0,034.8,028.1,012.4,0000.0,0018.18,0005.70,0003.51
2024-04-12 03:49:00,SystemResetWarning,0830.6,5.00,000.00,026.3,025.5,000.0,034.8,028.1,012.3,0000.0,0018.40,0005.72,0003.51
2024-04-12 03:50:00,SystemResetWarning,0830.6,5.00,000.00,026.3,025.5,000.0,034.8,028.1,012.3,0000.0,0018.86,0005.68,0003.50
2024-04-12 03:51:00,SystemResetWarning,0830.6,5.00,000.00,026.3,025.5,000.0,034.8,028.1,012.2,0000.0,0019.67,0005.62,0003.48
2024-04-12 03:52:00,SystemResetWarning,0830.6,5.00,000.00,026.3,025.5,000.0,034.8,028.1,012.2,0000.0,0019.59,0005.58,0003.48
2024-04-12 03:53:00,SystemResetWarning,0830.6,5.00,000.00,026.3,025.5,000.0,034.8,028.1,012.2,0000.0,0020.35,0005.58,0003.47
2024-04-12 03:54:00,SystemResetWarning,0830.6,5.00,000.00,026.3,025.5,000.0,034.8,028.1,012.2,0000.0,0021.58,0005.65,0003.49
2024-04-12 03:55:00,SystemResetWarning,0830.6,5.00,000.00,026.3,025.5,000.0,034.8,028.1,012.2,0000.0,0021.63,0005.74,0003.51
2024-04-12 03:56:00,SystemResetWarning,0830.6,5.00,000.00,026.3,025.5,000.0,034.8,028.1,012.2,0000.0,0020.91,0005.71,0003.50
2024-04-12 03:57:00,SystemResetWarning,0830.6,5.00,000.00,026.3,025.5,000.0,034.8,028.1,012.2,0000.0,0019.96,0005.71,0003.50
2024-04-12 03:58:00,SystemResetWarning,0830.5,5.01,000.00,026.3,025.4,000.0,034.8,028.1,012.2,0000.0,0020.90,0005.70,0003.49
2024-04-12 03:59:00,SystemResetWarning,0830.6,5.00,000.00,026.3,025.4,000.0,034.8,028.1,012.2,0000.0,0021.40,0005.76,0003.49
